TimeEDT,TemperatureF,Dew PointF,Humidity,Sea Level PressureIn,VisibilityMPH,Wind Direction,Wind SpeedMPH,Gust SpeedMPH,PrecipitationIn,Events,Conditions,WindDirDegrees,DateUTC
12:51 AM,41.0,37.0,86,29.90,10.0,SW,5.8,-,N/A,,Clear,220,2012-10-21 04:51:00
1:51 AM,44.1,39.0,82,29.91,10.0,WSW,5.8,-,N/A,,Clear,250,2012-10-21 05:51:00
2:51 AM,43.0,39.0,86,29.92,10.0,Calm,Calm,-,N/A,,Clear,0,2012-10-21 06:51:00
3:51 AM,44.1,39.0,82,29.92,10.0,South,4.6,-,N/A,,Clear,190,2012-10-21 07:51:00
4:51 AM,42.1,37.9,85,29.93,10.0,SSW,5.8,-,N/A,,Clear,210,2012-10-21 08:51:00
5:51 AM,41.0,37.9,89,29.95,10.0,SW,5.8,-,N/A,,Clear,230,2012-10-21 09:51:00
6:51 AM,41.0,37.9,89,29.97,10.0,SW,8.1,-,N/A,,Clear,230,2012-10-21 10:51:00
7:51 AM,44.1,41.0,89,29.99,10.0,SSW,6.9,-,N/A,,Clear,210,2012-10-21 11:51:00
8:51 AM,48.9,43.0,80,30.02,10.0,WSW,6.9,-,N/A,,Clear,240,2012-10-21 12:51:00
9:51 AM,54.0,45.0,72,30.02,10.0,West,8.1,-,N/A,,Clear,270,2012-10-21 13:51:00
10:51 AM,57.0,44.1,62,30.02,10.0,WNW,6.9,-,N/A,,Clear,300,2012-10-21 14:51:00
11:51 AM,60.1,42.1,51,30.02,10.0,WNW,10.4,20.7,N/A,,Clear,300,2012-10-21 15:51:00
12:51 PM,62.1,42.1,48,30.01,10.0,WNW,12.7,-,N/A,,Clear,300,2012-10-21 16:51:00
1:51 PM,62.1,39.9,44,29.99,10.0,NW,10.4,19.6,N/A,,Partly Cloudy,310,2012-10-21 17:51:00
2:51 PM,63.0,41.0,45,29.99,10.0,NNW,8.1,-,N/A,,Scattered Clouds,330,2012-10-21 18:51:00
3:51 PM,61.0,37.9,42,29.99,10.0,WNW,10.4,-,N/A,,Clear,290,2012-10-21 19:51:00
4:51 PM,62.1,39.0,43,29.99,10.0,WNW,8.1,-,N/A,,Clear,290,2012-10-21 20:51:00
5:51 PM,60.1,39.0,46,30.01,10.0,WNW,6.9,-,N/A,,Clear,300,2012-10-21 21:51:00
6:51 PM,55.9,39.0,53,30.02,10.0,West,4.6,-,N/A,,Clear,280,2012-10-21 22:51:00
7:51 PM,50.0,39.0,66,30.04,10.0,WSW,4.6,-,N/A,,Clear,240,2012-10-21 23:51:00
8:51 PM,48.0,39.0,71,30.05,10.0,WSW,5.8,-,N/A,,Clear,240,2012-10-22 00:51:00
9:51 PM,52.0,39.9,63,30.06,10.0,West,3.5,-,N/A,,Clear,270,2012-10-22 01:51:00
10:51 PM,48.0,39.0,71,30.07,10.0,WSW,5.8,-,N/A,,Clear,250,2012-10-22 02:51:00
11:51 PM,48.9,39.9,71,30.08,10.0,West,5.8,-,N/A,,Clear,260,2012-10-22 03:51:00